TimeCST,TemperatureF,Dew PointF,Humidity,Sea Level PressureIn,VisibilityMPH,Wind Direction,Wind SpeedMPH,Gust SpeedMPH,PrecipitationIn,Events,Conditions,WindDirDegrees,DateUTC
12:53 AM,19.9,15.1,81,30.32,10.0,NNE,4.6,-,N/A,,Clear,30,2013-01-20 06:53:00
1:53 AM,19.9,14.0,78,30.32,10.0,East,3.5,-,N/A,,Clear,90,2013-01-20 07:53:00
2:53 AM,18.0,12.0,78,30.34,10.0,East,3.5,-,N/A,,Clear,80,2013-01-20 08:53:00
3:53 AM,18.0,12.0,78,30.31,10.0,East,4.6,-,N/A,,Clear,90,2013-01-20 09:53:00
4:53 AM,18.0,12.0,78,30.31,10.0,ESE,3.5,-,N/A,,Clear,120,2013-01-20 10:53:00
5:53 AM,17.1,12.0,81,30.30,10.0,Calm,Calm,-,N/A,,Clear,0,2013-01-20 11:53:00
6:53 AM,17.1,12.0,81,30.31,10.0,SE,3.5,-,N/A,,Clear,130,2013-01-20 12:53:00
7:53 AM,14.0,10.0,84,30.36,10.0,Calm,Calm,-,N/A,,Clear,0,2013-01-20 13:53:00
8:53 AM,16.0,12.0,84,30.36,10.0,SE,5.8,-,N/A,,Clear,140,2013-01-20 14:53:00
9:53 AM,18.0,10.9,74,30.40,10.0,East,5.8,-,N/A,,Partly Cloudy,100,2013-01-20 15:53:00
10:53 AM,21.0,12.0,68,30.42,10.0,ESE,4.6,-,N/A,,Overcast,120,2013-01-20 16:53:00
11:29 AM,21.2,12.2,68,30.33,10.0,East,4.6,-,N/A,,Overcast,90,2013-01-20 17:29:00
11:53 AM,23.0,12.0,63,30.43,10.0,SE,4.6,-,N/A,,Overcast,140,2013-01-20 17:53:00
12:53 PM,21.9,10.0,60,30.44,10.0,NNE,12.7,-,N/A,,Overcast,30,2013-01-20 18:53:00
1:53 PM,19.9,9.0,62,30.45,10.0,North,9.2,18.4,N/A,,Overcast,360,2013-01-20 19:53:00
2:53 PM,23.0,12.0,63,30.44,10.0,North,11.5,-,N/A,,Overcast,10,2013-01-20 20:53:00
3:53 PM,21.9,6.1,51,30.45,-9999.0,NNW,9.2,-,N/A,,Overcast,340,2013-01-20 21:53:00
4:21 PM,23.0,8.6,54,30.35,-9999.0,NNW,10.4,-,N/A,,Scattered Clouds,340,2013-01-20 22:21:00
4:53 PM,21.9,8.1,55,30.45,10.0,North,10.4,-,N/A,,Clear,360,2013-01-20 22:53:00
5:53 PM,18.0,7.0,62,30.45,10.0,North,4.6,-,N/A,,Clear,360,2013-01-20 23:53:00
6:53 PM,10.9,3.9,73,30.47,10.0,Calm,Calm,-,N/A,,Clear,0,2013-01-21 00:53:00
7:53 PM,14.0,7.0,74,30.48,10.0,Calm,Calm,-,N/A,,Clear,0,2013-01-21 01:53:00
8:53 PM,17.1,10.0,74,30.48,10.0,West,4.6,-,N/A,,Overcast,260,2013-01-21 02:53:00
9:53 PM,16.0,8.1,71,30.47,10.0,West,8.1,-,N/A,,Mostly Cloudy,260,2013-01-21 03:53:00
10:53 PM,17.1,9.0,71,30.48,10.0,West,9.2,-,N/A,,Scattered Clouds,260,2013-01-21 04:53:00
11:53 PM,21.0,10.0,63,30.45,10.0,WNW,15.0,-,N/A,,Overcast,300,2013-01-21 05:53:00